Flag for Norway Weather past 2 weeks in Randaberg, Norway

Now
63 °F

Sunny.


Feels Like: 63 °F
Forecast: 53 / 63 °F
Wind: 1 mph from East

Location: Stavanger / Sola

Current Time: Sep 18, 2014 at 12:27:10 PM

Latest Report: Sep 18, 2014 at 11:00 AM


Visibility: 14 mi

Pressure: 30.14 "Hg

Humidity: 66%

Dew point: 52 °F

Location of RandabergLocation

Historic Weather in Randaberg — Graph

°F

Randaberg temperature yesterday

Maximum temperature yesterday: 70 °F (at 2:00 PM)
Minimum temperature yesterday: 51 °F (at 7:00 AM)
Average temperature yesterday: 60 °F

Past Weeks' High & Low Weather Summary

 TemperatureHumidityPressure
High72 °F (Sep 16, 4:00 PM)99% (Sep 14, 8:00 AM)30.46 "Hg (Sep 14, 8:00 AM)
Low45 °F (Sep 18, 6:00 AM)31% (Sep 16, 5:00 PM)29.80 "Hg (Sep 7, 3:00 AM)
Average58 °F80%30.17 "Hg
* Reported Sep 3 11:00 AM — Sep 18 11:00 AM, Randaberg, Weather by CustomWeather, © 2014

Note: Actual official high and low records may vary slightly from our data, if they occured in-between our weather recording intervals... More about our weather records

Advertising

Randaberg weather history for previous 24 hours

 ConditionsComfort  
Time TempWeatherWind HumidityBarometerVisibility
11:00 AM
Sep 18
63 °FSunny.1 mph66%30.14 "Hg14 mi
10:00 AM58 °FSunny.No wind73%30.15 "Hg14 mi
9:00 AM50 °FSunny.1 mph87%30.15 "Hg15 mi
8:00 AM47 °FSunny.No wind92%30.14 "Hg14 mi
7:00 AM47 °FPassing clouds.1 mph89%30.15 "Hg18 mi
6:00 AM45 °FClear.1 mph93%30.15 "Hg16 mi
5:00 AM46 °FClear.No wind94%30.15 "Hg10 mi
4:00 AM47 °FClear.1 mph92%30.16 "Hg11 mi
3:00 AM49 °FClear.1 mph93%30.17 "Hg7 mi
2:00 AM50 °FClear.1 mph95%30.18 "Hg8 mi
1:00 AM53 °FClear.No wind97%30.18 "Hg4 mi
12:00 AM54 °FClear.1 mph96%30.18 "Hg4 mi
11:00 PM
Sep 17
55 °FClear.1 mph96%30.18 "Hg4 mi
10:00 PM55 °FClear.2 mph94%30.19 "Hg6 mi
9:00 PM57 °FClear.2 mph91%30.18 "Hg7 mi
8:00 PM60 °FClear.No wind87%30.17 "Hg8 mi
7:00 PM63 °FSunny.2 mph75%30.17 "Hg17 mi
6:00 PM64 °FSunny.5 mph69%30.18 "Hg19 mi
5:00 PM65 °FSunny.6 mph65%30.17 "Hg18 mi
4:00 PM69 °FPassing clouds.6 mph46%30.17 "Hg25 mi
3:00 PM69 °FSunny.5 mph47%30.18 "Hg16 mi
2:00 PM70 °FSunny.1 mph44%30.19 "Hg19 mi
1:00 PM68 °FSunny.3 mph48%30.19 "Hg19 mi
12:00 PM66 °FSunny.3 mph50%30.21 "Hg17 mi
Weather by CustomWeather, © 2014

See weather overviewHow to use our weather pages